SCP
0 0 0 0 0 0 0 0 0 0 0 0 0 0 0 0 0 0 0 0 0 0 -0 -0 0 0 0 0 0 0 0 0 -0 -0 0 0 0 0
0 0 0 0 0 0 0 0 0 0 0 0 0 0 0 0 0 0 0 0 0 0 0 0 0 0 0 0 0 0 -0 0 0 0 0 0 -0 0
0 0 0 0 0 0 0 0 0 0 0 0 0 0 0 0 0 0 0 0 0 0 0 0 -0 0 0 0 0 0 0 0 0 0 0 0 -0 -0
0 0 0 0 0 0 0 0 -0 0 0 0 0 0 0 0 0 0 0 0 0 0 0 0 0 0 0 0 0 0 0 0 0 0 0 -0 -0 0
0 0 0 0 0 0 0 0 0 0 0 -0 0 0 0 0 0 0 0 0 0 0 0 0 0 0 0 0 0 0 0 0 0 0 -0 -0 0 0
0 0 0 0 0 0 0 0 0 0 0 -0 0 0 0 0 0 0 0 0 0 0 0 0 0 0 0 0 0 0 0 0 0 0 -0 0 -0 -0
0 0 0 0 0 0 0 0 0 0 0 0 0 0 0 0 0 0 0 0 0 0 0 0 0 0 0 0 0 0 0 0 0 0 0 0 0 -0
0 0 0 0 0 0 0 0 0 -0 0 0 0 0 0 0 0 0 0 0 0 0 0 0 0 0 0 0 0 0 0 0 0 -0 0 0 0 0
0 0 0 0 0 0 0 0 0 0 0 0 0 0 0 0 0 0 0 0 0 0 0 0 0 0 0 0 0 0 0 0 0 -0 0 0 0 0
0 0 0 0 0 0 0 0 0 0 0 0 0 0 0 0 0 0 0 0 0 0 0 0 0 0 0 0 0 0 0 0 -0 0 0 0 0 -0
0 0 0 0 0 0 0 0 0 0 0 0 0 0 0 0 0 0 0 0 0 0 0 0 0 0 0 0 0 0 0 0 0 0 0 0 -0 -0
0 0 0 0 0 -0 0 0 0 0 0 0 0 0 0 0 0 0 0 0 0 0 0 0 0 0 0 0 0 -0 0 0 0 0 0 -0 -0 0
0 0 0 -0 0 0 0 0 0 0 0 0 0 0 0 0 0 0 0 0 0 0 0 0 0 0 0 0 0 -0 0 -0 -0 -0 -0 -0 -0 -0
0 0 0 -0 0 0 0 -0 -0 0 0 0 0 0 0 0 0 0 0 0 0 0 -0 0 0 0 0 0 0 0 -0 -0 -0 -0 -0 0 -0 -0
0 0 0 -0 -0 0 0 0 0 0 0 0 0 0 0 0 0 0 0 0 0 0 0 0 0 0 -0 0 0 0 0 0 0 0 0 0 0 0
0 0 0 0 0 0 0 0 0 0 0 0 0 0 0 0 0 0 0 0 0 0 0 0 0 0 0 0 0 0 0 0 0 0 0 0 0 0
0 0 0 0 0 0 0 0 0 0 0 0 0 0 0 0 0 0 0 0 0 0 0 0 -0 0 0 0 -0 -0 0 0 0 0 0 0 0 0
0 0 0 0 0 0 0 0 0 0 0 0 0 0 0 -0 -0 -0 0 0 0 0 0 0 0 0 0 -0 0 0 0 0 0 0 0 0 0 0
0 0 0 0 0 0 0 0 0 0 0 -0 -0 -0 -0 -0 -0 -0 0 0 0 0 0 0 0 0 0 0 0 0 0 0 0 0 0 0 0 0
0 -0 0 0 -0 -0 0 0 0 0 -0 -0 -0 -0 -0 -0 -0 -0 0 0 0 0 0 0 0 0 0 0 0 0 0 0 0 0 0 0 0 0
0 0 0 0 0 0 0 0 0 0 -0 -0 0 -0 0 -0 0 0 0 0 0 0 0 0 0 0 0 0 0 0 0 0 0 0 0 0 0 0
0 0 0 0 0 0 -0 0 0 -0 -0 -0 -0 0 0 0 0 0 0 0 0 0 0 0 0 0 0 0 0 0 0 0 0 0 0 0 0 0
0 0 -0 -0 0 0 0 0 0 0 0 0 0 0 0 0 0 0 0 0 0 0 0 0 0 0 0 0 0 0 0 0 0 0 0 0 0 0
Wind_Speed_500mb
32 33 30 32 32 30 31 29 25 18 23 19 13 18 15 25 30 39 46 34 35 37 35 36 40 38 41 38 37 32 22 24 28 33 34 38 38 35
25 27 30 33 36 32 28 26 23 20 20 21 20 17 10 31 28 39 35 33 34 34 33 39 40 41 43 38 34 34 33 26 28 32 34 37 35 34
25 24 25 26 26 27 22 18 18 20 25 21 21 21 32 35 33 29 30 30 32 32 34 36 38 38 40 37 34 36 33 29 27 31 35 36 36 34
23 23 25 24 27 26 23 16 10 13 19 25 28 32 32 28 32 32 31 31 31 32 32 32 37 38 39 39 48 39 34 27 28 35 37 37 35 34
23 23 22 25 27 25 26 20 10 12 13 33 38 31 35 37 35 34 34 33 29 34 33 31 36 38 36 37 41 34 32 27 33 35 37 35 34 29
28 26 27 27 26 27 25 21 18 19 23 33 37 39 35 36 34 37 38 34 38 38 33 36 37 36 35 39 33 36 35 33 34 34 35 34 29 24
33 31 32 30 25 25 26 24 26 28 32 38 42 38 36 35 37 40 42 39 39 40 41 40 41 42 47 42 35 34 35 35 34 36 35 31 28 24
28 34 32 29 26 25 26 24 23 30 39 38 41 41 41 39 40 43 45 46 43 38 49 39 38 42 51 40 38 36 35 35 36 34 31 30 27 25
23 25 28 31 26 27 30 24 22 24 24 26 37 48 45 42 43 49 48 52 51 46 47 45 39 46 34 33 39 35 37 36 34 31 31 30 27 28
23 25 29 25 28 31 34 29 30 29 28 26 26 32 39 39 36 47 50 49 47 52 42 48 44 45 42 42 40 35 36 35 32 30 30 28 29 29
24 25 29 30 32 31 32 34 34 34 30 29 29 31 34 36 44 43 52 49 53 53 55 41 46 38 34 40 37 35 34 33 34 34 32 30 28 33
27 30 30 26 29 30 30 32 32 29 32 31 38 39 37 39 38 44 43 54 56 47 56 47 46 42 36 43 41 39 36 36 37 35 36 30 30 36
28 30 29 25 28 28 24 25 23 32 28 36 41 39 38 37 41 42 37 40 52 50 58 50 42 42 31 25 42 41 40 38 40 40 38 37 36 41
32 31 27 29 30 30 27 27 26 26 32 40 42 40 40 38 35 38 39 35 38 46 23 51 37 38 46 23 20 38 35 34 39 44 43 40 42 47
28 23 33 31 30 28 28 26 26 27 32 41 40 40 39 36 36 36 41 38 31 35 28 15 38 29 41 32 21 17 19 19 24 31 39 42 40 42
26 32 33 28 24 29 31 29 26 25 33 33 39 38 36 37 32 30 31 32 29 29 28 28 29 26 32 35 32 29 22 20 21 24 31 39 40 41
34 37 36 30 30 35 33 26 23 27 33 32 38 37 37 35 33 32 29 34 35 32 22 22 29 27 27 35 42 40 32 33 32 34 37 44 47 48
35 33 33 28 29 33 29 26 27 30 32 33 37 38 39 36 32 40 36 33 33 27 17 13 21 34 35 42 47 42 38 39 39 45 54 63 70 55
28 29 30 29 32 29 27 28 27 29 30 33 38 38 37 30 29 36 32 33 29 23 17 12 15 26 37 42 30 37 40 29 30 35 36 45 58 59
28 29 28 25 23 27 25 23 24 27 29 30 32 35 32 30 33 29 26 24 22 18 15 15 20 24 29 29 34 36 39 42 45 50 55 57 61 65
30 26 21 19 20 22 22 22 21 22 24 29 32 36 32 28 25 22 20 19 19 19 21 21 21 21 34 44 52 48 37 41 48 55 61 68 73 77
15 13 12 14 19 19 21 21 20 21 24 27 31 33 28 24 21 20 18 19 24 27 30 27 26 33 44 52 59 61 57 47 44 48 56 64 69 76
12 7 10 16 19 14 15 16 18 19 20 22 24 21 18 20 12 12 16 23 31 35 37 37 36 42 49 58 63 64 66 68 69 73 66 60 69 75
Wind_Direction_500mb
228 227 227 227 230 232 253 256 244 243 227 235 222 206 234 229 200 200 202 193 196 188 191 195 193 196 187 192 177 169 183 186 180 177 176 178 176 174
212 216 229 238 240 243 255 250 243 243 227 226 222 226 252 162 175 171 177 185 188 186 189 189 192 192 186 183 185 188 181 181 174 180 180 178 179 179
218 225 224 225 230 240 241 237 241 235 232 220 214 189 185 177 169 177 180 185 184 181 184 186 184 184 183 181 192 192 186 177 181 185 183 181 183 182
217 220 219 222 226 228 220 218 243 234 220 204 172 166 182 195 190 184 181 183 179 173 174 181 177 176 181 184 187 187 184 182 188 182 184 184 185 187
219 223 223 222 226 211 210 208 228 208 166 175 164 169 166 170 177 182 177 171 171 170 170 175 170 172 179 175 187 183 183 194 187 185 185 188 191 191
227 232 221 214 215 211 203 202 216 192 170 174 167 166 163 170 180 174 168 170 167 162 160 163 164 173 176 169 181 184 197 197 188 188 189 192 191 197
238 238 226 212 205 203 202 200 203 186 180 181 177 175 177 173 179 179 171 167 160 159 155 161 173 174 176 183 190 197 191 188 190 192 194 193 199 217
229 219 216 204 199 193 193 210 210 197 186 184 185 182 178 183 189 183 177 161 156 163 171 164 173 179 185 188 192 191 190 190 193 196 195 202 218 230
213 206 201 184 195 197 193 202 205 206 212 207 205 192 191 192 187 179 176 171 167 173 172 170 179 181 190 197 198 196 192 196 198 201 206 218 230 244
181 184 190 184 186 192 190 187 185 189 198 214 227 214 200 189 188 180 177 173 172 171 183 180 187 187 193 197 200 200 203 206 205 211 222 229 241 256
178 179 180 183 179 187 186 185 188 187 196 199 202 208 195 189 189 184 179 179 177 183 190 191 189 194 205 203 203 206 210 216 221 228 230 237 252 260
180 176 176 183 182 180 191 188 189 190 182 168 166 182 188 190 192 195 195 188 188 187 198 201 203 196 206 210 213 215 219 223 226 230 235 245 256 267
164 161 165 181 179 176 186 197 190 169 172 166 165 169 174 182 189 193 200 212 201 191 199 209 206 209 204 224 223 226 232 232 233 237 244 252 262 273
174 182 178 164 172 175 181 183 182 173 169 170 170 174 175 176 179 190 198 207 217 216 223 211 219 214 208 223 233 230 233 231 242 246 250 260 267 274
169 172 159 161 167 170 177 180 184 184 178 175 177 177 179 180 185 194 204 215 213 215 208 215 228 234 218 228 225 197 209 228 238 249 259 267 275 278
160 156 153 159 166 164 167 172 180 187 182 180 180 175 181 177 184 189 191 195 195 202 216 224 213 222 222 226 224 224 238 255 231 250 270 264 268 274
168 164 160 164 154 158 162 170 177 175 178 176 174 174 173 176 177 185 189 188 191 193 201 201 196 212 222 227 237 242 248 254 257 268 274 279 280 285
165 166 164 170 165 165 170 174 174 177 180 183 180 178 178 180 184 180 185 196 190 194 206 208 222 224 231 235 241 248 257 270 280 279 280 284 288 293
156 162 171 171 165 171 178 182 179 177 177 180 183 185 187 184 179 179 181 182 194 205 206 229 245 242 242 250 261 263 273 295 300 294 289 287 290 302
135 141 145 149 154 156 160 165 171 172 175 183 184 179 178 171 169 175 188 202 209 214 228 246 256 251 256 275 288 291 288 292 292 295 297 297 299 304
125 115 115 127 134 146 151 150 156 165 164 162 163 164 167 174 180 190 199 209 223 239 255 265 281 288 285 280 281 292 298 296 294 293 296 298 303 305
135 115 113 123 133 136 135 134 141 151 156 164 165 174 181 188 206 218 235 250 264 269 271 284 286 280 277 277 282 289 296 299 297 295 293 294 297 299
167 169 144 136 156 153 144 154 147 153 162 161 166 184 192 227 237 243 259 263 269 267 280 283 287 279 278 279 282 285 291 297 299 298 298 296 296 300
Wind_Speed_850mb
32 33 30 32 32 30 31 29 25 18 23 19 13 18 15 25 30 39 46 34 35 37 35 36 40 38 41 38 37 32 22 24 28 33 34 38 38 35
25 27 30 33 36 32 28 26 23 20 20 21 20 17 10 31 28 39 35 33 34 34 33 39 40 41 43 38 34 34 33 26 28 32 34 37 35 34
25 24 25 26 26 27 22 18 18 20 25 21 21 21 32 35 33 29 30 30 32 32 34 36 38 38 40 37 34 36 33 29 27 31 35 36 36 34
23 23 25 24 27 26 23 16 10 13 19 25 28 32 32 28 32 32 31 31 31 32 32 32 37 38 39 39 48 39 34 27 28 35 37 37 35 34
23 23 22 25 27 25 26 20 10 12 13 33 38 31 35 37 35 34 34 33 29 34 33 31 36 38 36 37 41 34 32 27 33 35 37 35 34 29
28 26 27 27 26 27 25 21 18 19 23 33 37 39 35 36 34 37 38 34 38 38 33 36 37 36 35 39 33 36 35 33 34 34 35 34 29 24
33 31 32 30 25 25 26 24 26 28 32 38 42 38 36 35 37 40 42 39 39 40 41 40 41 42 47 42 35 34 35 35 34 36 35 31 28 24
28 34 32 29 26 25 26 24 23 30 39 38 41 41 41 39 40 43 45 46 43 38 49 39 38 42 51 40 38 36 35 35 36 34 31 30 27 25
23 25 28 31 26 27 30 24 22 24 24 26 37 48 45 42 43 49 48 52 51 46 47 45 39 46 34 33 39 35 37 36 34 31 31 30 27 28
23 25 29 25 28 31 34 29 30 29 28 26 26 32 39 39 36 47 50 49 47 52 42 48 44 45 42 42 40 35 36 35 32 30 30 28 29 29
24 25 29 30 32 31 32 34 34 34 30 29 29 31 34 36 44 43 52 49 53 53 55 41 46 38 34 40 37 35 34 33 34 34 32 30 28 33
27 30 30 26 29 30 30 32 32 29 32 31 38 39 37 39 38 44 43 54 56 47 56 47 46 42 36 43 41 39 36 36 37 35 36 30 30 36
28 30 29 25 28 28 24 25 23 32 28 36 41 39 38 37 41 42 37 40 52 50 58 50 42 42 31 25 42 41 40 38 40 40 38 37 36 41
32 31 27 29 30 30 27 27 26 26 32 40 42 40 40 38 35 38 39 35 38 46 23 51 37 38 46 23 20 38 35 34 39 44 43 40 42 47
28 23 33 31 30 28 28 26 26 27 32 41 40 40 39 36 36 36 41 38 31 35 28 15 38 29 41 32 21 17 19 19 24 31 39 42 40 42
26 32 33 28 24 29 31 29 26 25 33 33 39 38 36 37 32 30 31 32 29 29 28 28 29 26 32 35 32 29 22 20 21 24 31 39 40 41
34 37 36 30 30 35 33 26 23 27 33 32 38 37 37 35 33 32 29 34 35 32 22 22 29 27 27 35 42 40 32 33 32 34 37 44 47 48
35 33 33 28 29 33 29 26 27 30 32 33 37 38 39 36 32 40 36 33 33 27 17 13 21 34 35 42 47 42 38 39 39 45 54 63 70 55
28 29 30 29 32 29 27 28 27 29 30 33 38 38 37 30 29 36 32 33 29 23 17 12 15 26 37 42 30 37 40 29 30 35 36 45 58 59
28 29 28 25 23 27 25 23 24 27 29 30 32 35 32 30 33 29 26 24 22 18 15 15 20 24 29 29 34 36 39 42 45 50 55 57 61 65
30 26 21 19 20 22 22 22 21 22 24 29 32 36 32 28 25 22 20 19 19 19 21 21 21 21 34 44 52 48 37 41 48 55 61 68 73 77
15 13 12 14 19 19 21 21 20 21 24 27 31 33 28 24 21 20 18 19 24 27 30 27 26 33 44 52 59 61 57 47 44 48 56 64 69 76
12 7 10 16 19 14 15 16 18 19 20 22 24 21 18 20 12 12 16 23 31 35 37 37 36 42 49 58 63 64 66 68 69 73 66 60 69 75
Wind_Direction_850mb
228 227 227 227 230 232 253 256 244 243 227 235 222 206 234 229 200 200 202 193 196 188 191 195 193 196 187 192 177 169 183 186 180 177 176 178 176 174
212 216 229 238 240 243 255 250 243 243 227 226 222 226 252 162 175 171 177 185 188 186 189 189 192 192 186 183 185 188 181 181 174 180 180 178 179 179
218 225 224 225 230 240 241 237 241 235 232 220 214 189 185 177 169 177 180 185 184 181 184 186 184 184 183 181 192 192 186 177 181 185 183 181 183 182
217 220 219 222 226 228 220 218 243 234 220 204 172 166 182 195 190 184 181 183 179 173 174 181 177 176 181 184 187 187 184 182 188 182 184 184 185 187
219 223 223 222 226 211 210 208 228 208 166 175 164 169 166 170 177 182 177 171 171 170 170 175 170 172 179 175 187 183 183 194 187 185 185 188 191 191
227 232 221 214 215 211 203 202 216 192 170 174 167 166 163 170 180 174 168 170 167 162 160 163 164 173 176 169 181 184 197 197 188 188 189 192 191 197
238 238 226 212 205 203 202 200 203 186 180 181 177 175 177 173 179 179 171 167 160 159 155 161 173 174 176 183 190 197 191 188 190 192 194 193 199 217
229 219 216 204 199 193 193 210 210 197 186 184 185 182 178 183 189 183 177 161 156 163 171 164 173 179 185 188 192 191 190 190 193 196 195 202 218 230
213 206 201 184 195 197 193 202 205 206 212 207 205 192 191 192 187 179 176 171 167 173 172 170 179 181 190 197 198 196 192 196 198 201 206 218 230 244
181 184 190 184 186 192 190 187 185 189 198 214 227 214 200 189 188 180 177 173 172 171 183 180 187 187 193 197 200 200 203 206 205 211 222 229 241 256
178 179 180 183 179 187 186 185 188 187 196 199 202 208 195 189 189 184 179 179 177 183 190 191 189 194 205 203 203 206 210 216 221 228 230 237 252 260
180 176 176 183 182 180 191 188 189 190 182 168 166 182 188 190 192 195 195 188 188 187 198 201 203 196 206 210 213 215 219 223 226 230 235 245 256 267
164 161 165 181 179 176 186 197 190 169 172 166 165 169 174 182 189 193 200 212 201 191 199 209 206 209 204 224 223 226 232 232 233 237 244 252 262 273
174 182 178 164 172 175 181 183 182 173 169 170 170 174 175 176 179 190 198 207 217 216 223 211 219 214 208 223 233 230 233 231 242 246 250 260 267 274
169 172 159 161 167 170 177 180 184 184 178 175 177 177 179 180 185 194 204 215 213 215 208 215 228 234 218 228 225 197 209 228 238 249 259 267 275 278
160 156 153 159 166 164 167 172 180 187 182 180 180 175 181 177 184 189 191 195 195 202 216 224 213 222 222 226 224 224 238 255 231 250 270 264 268 274
168 164 160 164 154 158 162 170 177 175 178 176 174 174 173 176 177 185 189 188 191 193 201 201 196 212 222 227 237 242 248 254 257 268 274 279 280 285
165 166 164 170 165 165 170 174 174 177 180 183 180 178 178 180 184 180 185 196 190 194 206 208 222 224 231 235 241 248 257 270 280 279 280 284 288 293
156 162 171 171 165 171 178 182 179 177 177 180 183 185 187 184 179 179 181 182 194 205 206 229 245 242 242 250 261 263 273 295 300 294 289 287 290 302
135 141 145 149 154 156 160 165 171 172 175 183 184 179 178 171 169 175 188 202 209 214 228 246 256 251 256 275 288 291 288 292 292 295 297 297 299 304
125 115 115 127 134 146 151 150 156 165 164 162 163 164 167 174 180 190 199 209 223 239 255 265 281 288 285 280 281 292 298 296 294 293 296 298 303 305
135 115 113 123 133 136 135 134 141 151 156 164 165 174 181 188 206 218 235 250 264 269 271 284 286 280 277 277 282 289 296 299 297 295 293 294 297 299
167 169 144 136 156 153 144 154 147 153 162 161 166 184 192 227 237 243 259 263 269 267 280 283 287 279 278 279 282 285 291 297 299 298 298 296 296 300